sat.trackr.live / text

‹ back to catalog

STARLINK-32824

NORAD 62817 · 2025-018M

PAYLOAD ACTIVE UNKNOWN

§ Identity

Operator
Country
US
Launch date
2025-01-24
Launch site
AFWTR
Launch vehicle
Mass (kg)
RCS (m²)

Purposes: comms

External: N2YO · Heavens-Above · Gunter

§ Orbital elements

Epoch: 2026-05-25T04:32:31.206048Z

Period
94.10 min
Inclination
53.1600°
Eccentricity
0.0001186
Mean motion
15.30207208 rev/d
Perigee alt
474.4 km
Apogee alt
476.0 km
Semi-major
6,853.3 km
B*
7.0504e-4
RAAN
314.0616°
Arg perigee
83.2738°
Mean anomaly
276.8397°
Rev number
7,583

§ Raw data

STARLINK-328241 62817U 25018M   26145.18925007  .00020585  00000+0  70504-3 0  99982 62817  53.1600 314.0616 0001186  83.2738 276.8397 15.30207208 75832

JSON: /api/v1/satellites/62817 · /tle

For live sub-satellite position, see the globe view (requires WebGL).

§ Visibility from observer

Set your observer location to see the next 7 days of passes ≥ 10°. The values pass through the URL so the page stays shareable.

No JS? Fill the form by hand. The geolocation button needs JavaScript.